Location: Buckeye Ditch
(40.9104°N, 122.9517°W)
Time: 13:06:14
(UTC+00:00)

Altair - All Passes

Search period start: 18 May 2025 00:00
Search period end: 28 May 2025 00:00
Orbit: 1501 x 1682 km, 47.2° (Epoch: 18 May)

Date Brightness Start Highest point End Pass type
(mag) Time Alt. Az. Time Alt. Az. Time Alt. Az.
18 May - 12:41:11 10° SE 12:42:51 11° ESE 12:44:32 10° ESE daylight
18 May - 14:36:30 10° SSW 14:45:40 47° SE 14:55:07 10° ENE daylight
18 May - 16:40:10 10° WSW 16:50:10 80° NNW 17:00:25 10° ENE daylight
18 May - 18:46:01 10° WNW 18:56:02 61° N 19:06:06 10° E daylight
18 May - 20:51:33 10° WNW 21:01:48 85° NNE 21:11:55 10° ESE daylight
18 May - 22:56:55 10° WNW 23:06:08 41° SW 23:15:11 10° SSE daylight
19 May - 14:11:31 10° SSW 14:20:30 43° SE 14:29:45 10° ENE daylight
19 May - 16:14:54 10° WSW 16:24:52 83° NNW 16:35:06 10° ENE daylight
19 May - 18:20:41 10° W 18:30:40 61° N 18:40:44 10° E daylight
19 May - 20:26:16 10° WNW 20:36:30 81° NNE 20:46:38 10° ESE daylight
19 May - 22:31:33 10° WNW 22:40:58 45° SW 22:50:12 10° SSE daylight
20 May - 13:46:34 10° SSW 13:55:20 40° SE 14:04:23 10° ENE daylight
20 May - 15:49:38 10° WSW 15:59:34 86° NNW 16:09:48 10° ENE daylight
20 May - 17:55:20 10° W 18:05:18 61° N 18:15:23 10° ENE daylight
20 May - 20:00:58 10° WNW 20:11:12 78° NNE 20:21:20 10° ESE daylight
20 May - 22:06:12 10° WNW 22:15:47 49° SW 22:25:12 10° SSE daylight
21 May - 00:15:42 10° WSW 00:18:42 12° WSW 00:21:41 10° SW daylight
21 May - 13:21:39 10° SSW 13:30:12 36° SE 13:38:59 10° ENE daylight
21 May - 15:24:24 10° WSW 15:34:17 90° NNW 15:44:30 10° ENE daylight
21 May - 17:30:01 10° W 17:39:56 61° N 17:50:02 10° ENE daylight
21 May - 19:35:41 10° WNW 19:45:53 76° NNE 19:56:02 10° ESE daylight
21 May - 21:40:52 10° WNW 21:50:35 52° SW 22:00:09 10° SSE daylight
21 May - 23:49:17 10° W 23:53:38 14° WSW 23:57:57 10° SSW daylight
22 May - 12:56:48 10° S 13:05:04 33° SE 13:13:35 10° ENE daylight
22 May - 14:59:10 10° WSW 15:09:01 87° SSE 15:19:12 10° ENE daylight
22 May - 17:04:40 10° W 17:14:35 62° N 17:24:41 10° ENE daylight
22 May - 19:10:23 10° WNW 19:20:33 73° NNE 19:30:43 10° ESE daylight
22 May - 21:15:33 10° WNW 21:25:23 56° SW 21:35:05 10° SE daylight
22 May - 23:23:15 10° W 23:28:33 16° WSW 23:33:49 10° SSW daylight
23 May - 12:31:58 10° S 12:39:56 30° SE 12:48:07 10° ENE daylight
23 May - 14:33:58 10° SW 14:43:45 83° SSE 14:53:54 10° ENE daylight
23 May - 16:39:20 10° W 16:49:13 63° N 16:59:20 10° ENE daylight
23 May - 18:45:05 10° WNW 18:55:13 71° NNE 19:05:23 10° ESE daylight
23 May - 20:50:15 10° WNW 21:00:10 61° SW 21:10:00 10° SE daylight
23 May - 22:57:24 10° W 23:03:27 18° WSW 23:09:27 10° SSW daylight
24 May - 12:07:12 10° S 12:14:49 27° SE 12:22:39 10° ENE visible
24 May - 14:08:48 10° SW 14:18:31 78° SSE 14:28:36 10° ENE daylight
24 May - 16:14:00 10° W 16:23:52 64° N 16:33:59 10° ENE daylight
24 May - 18:19:48 10° WNW 18:29:53 69° NNE 18:40:03 10° E daylight
24 May - 20:24:56 10° WNW 20:34:57 65° SW 20:44:51 10° SE daylight
24 May - 22:31:42 10° W 22:38:22 20° SW 22:44:58 10° SSW daylight
25 May - 11:42:28 10° S 11:49:43 25° SE 11:57:08 10° ENE visible
25 May - 13:43:38 10° SW 13:53:16 74° SE 14:03:19 10° ENE daylight
25 May - 15:48:41 10° W 15:58:31 65° N 16:08:38 10° ENE daylight
25 May - 17:54:30 10° WNW 18:04:33 67° NNE 18:14:41 10° E daylight
25 May - 19:59:39 10° WNW 20:09:43 69° SW 20:19:42 10° SE daylight
25 May - 22:06:04 10° W 22:13:15 22° SW 22:20:23 10° S daylight
26 May - 11:17:50 10° S 11:24:37 22° SE 11:31:34 10° E visible
26 May - 13:18:29 10° SW 13:28:03 70° SE 13:38:00 10° ENE daylight
26 May - 15:23:22 10° W 15:33:11 66° NNW 15:43:18 10° ENE daylight
26 May - 17:29:11 10° WNW 17:39:12 65° NNE 17:49:20 10° E daylight
26 May - 19:34:22 10° WNW 19:44:27 73° SW 19:54:32 10° SE daylight
26 May - 21:40:30 10° WNW 21:48:08 25° SW 21:55:43 10° S daylight
27 May - 10:53:16 10° SSE 10:59:32 20° SE 11:05:56 10° E visible
27 May - 12:53:22 10° SW 13:02:50 65° SE 13:12:42 10° ENE daylight
27 May - 14:58:03 10° W 15:07:51 68° NNW 15:17:58 10° ENE daylight
27 May - 17:03:53 10° WNW 17:13:51 64° N 17:23:57 10° E daylight
27 May - 19:09:05 10° WNW 19:19:13 77° SSW 19:29:20 10° SE daylight
27 May - 21:14:59 10° WNW 21:23:00 27° SW 21:30:58 10° S daylight
